AAL8917 KSAN-KPHX

Flight info

Callsign AAL8917
Flight time 0h 48m
Altitude 35000
Route ZZOOO4 HOGGZ HYDRR1
Aircraft B738/M-SDE2E3FGHIRWXY/LB1

Departure

Time 2026-05-04 14:57
Airport San Diego International Airport (KSAN)

Arrival

Time 2026-05-04 15:45
Airport Phoenix Sky Harbor International Airport (KPHX)
Time Latitude Longitude Altitude Speed Heading
2026-05-04 14:33 32.73347 -117.20056 29 ft 0 kts 263°
2026-05-04 14:47 32.73347 -117.20051 25 ft 2 kts 263°
2026-05-04 14:48 32.73349 -117.20032 27 ft 2 kts 263°
2026-05-04 14:48 32.73350 -117.20013 28 ft 2 kts 284°
2026-05-04 14:48 32.73342 -117.19996 29 ft 2 kts 317°
2026-05-04 14:48 32.73329 -117.19986 29 ft 2 kts 354°
2026-05-04 14:49 32.73322 -117.19986 27 ft 0 kts
2026-05-04 14:51 32.73340 -117.19983 28 ft 6 kts
2026-05-04 14:52 32.73416 -117.19965 27 ft 13 kts 13°
2026-05-04 14:52 32.73475 -117.19897 30 ft 13 kts 90°
2026-05-04 14:52 32.73451 -117.19784 28 ft 17 kts 105°
2026-05-04 14:52 32.73413 -117.19631 27 ft 20 kts 105°
2026-05-04 14:53 32.73375 -117.19473 29 ft 20 kts 106°
2026-05-04 14:53 32.73338 -117.19320 24 ft 19 kts 105°
2026-05-04 14:53 32.73303 -117.19172 24 ft 18 kts 106°
2026-05-04 14:53 32.73267 -117.19029 27 ft 18 kts 106°
2026-05-04 14:54 32.73234 -117.18892 27 ft 17 kts 105°
2026-05-04 14:54 32.73202 -117.18758 36 ft 16 kts 106°
2026-05-04 14:54 32.73169 -117.18624 27 ft 19 kts 106°
2026-05-04 14:54 32.73127 -117.18446 27 ft 24 kts 106°
2026-05-04 14:55 32.73082 -117.18263 26 ft 23 kts 106°
2026-05-04 14:55 32.73042 -117.18097 24 ft 20 kts 106°
2026-05-04 14:55 32.73004 -117.17941 22 ft 18 kts 106°
2026-05-04 14:55 32.72976 -117.17832 21 ft 13 kts 108°
2026-05-04 14:56 32.72951 -117.17730 22 ft 13 kts 97°
2026-05-04 14:56 32.72967 -117.17631 23 ft 9 kts 60°
2026-05-04 14:56 32.73021 -117.17615 24 ft 10 kts 322°
2026-05-04 14:56 32.73062 -117.17757 25 ft 40 kts 287°
2026-05-04 14:57 32.73210 -117.18367 28 ft 111 kts 286°
2026-05-04 14:57 32.73477 -117.19467 81 ft 159 kts 287°
2026-05-04 14:57 32.73776 -117.20691 946 ft 148 kts 287°
2026-05-04 14:57 32.74060 -117.21833 1779 ft 144 kts 286°
2026-05-04 14:58 32.74352 -117.23028 2211 ft 163 kts 286°
2026-05-04 14:58 32.74682 -117.24391 2646 ft 181 kts 287°
2026-05-04 14:58 32.75067 -117.25901 3006 ft 199 kts 287°
2026-05-04 14:58 32.75478 -117.27556 3316 ft 215 kts 286°
2026-05-04 14:59 32.75899 -117.29296 3735 ft 227 kts 286°
2026-05-04 14:59 32.76345 -117.31152 4354 ft 235 kts 285°
2026-05-04 14:59 32.75998 -117.34767 6088 ft 236 kts 233°
2026-05-04 15:00 32.74715 -117.36003 6853 ft 242 kts 208°
2026-05-04 15:00 32.73084 -117.36470 7680 ft 247 kts 182°
2026-05-04 15:00 32.71391 -117.35955 8390 ft 261 kts 153°
2026-05-04 15:01 32.68861 -117.32699 9895 ft 280 kts 133°
2026-05-04 15:01 32.67624 -117.30892 10559 ft 284 kts 136°
2026-05-04 15:01 32.66339 -117.29087 11317 ft 287 kts 137°
2026-05-04 15:01 32.65039 -117.27260 12062 ft 292 kts 137°
2026-05-04 15:02 32.63737 -117.25385 12818 ft 299 kts 132°
2026-05-04 15:02 32.62917 -117.23015 13414 ft 327 kts 105°
2026-05-04 15:02 32.62643 -117.20212 13608 ft 356 kts 99°
2026-05-04 15:02 32.62422 -117.17183 13851 ft 379 kts 99°
2026-05-04 15:03 32.62169 -117.14014 14305 ft 392 kts 100°
2026-05-04 15:03 32.62018 -117.10753 14955 ft 402 kts 89°
2026-05-04 15:03 32.62702 -117.07504 15673 ft 411 kts 69°
2026-05-04 15:03 32.63791 -117.04339 16383 ft 417 kts 68°
2026-05-04 15:04 32.64894 -117.01133 17029 ft 424 kts 69°
2026-05-04 15:04 32.65987 -116.97856 17674 ft 430 kts 70°
2026-05-04 15:04 32.66785 -116.94471 18280 ft 432 kts 88°
2026-05-04 15:04 32.66883 -116.90917 18897 ft 432 kts 95°
2026-05-04 15:05 32.66898 -116.87335 19542 ft 435 kts 95°
2026-05-04 15:05 32.66930 -116.83735 20197 ft 438 kts 94°
2026-05-04 15:05 32.66995 -116.80101 20828 ft 442 kts 94°
2026-05-04 15:05 32.67078 -116.76442 21426 ft 446 kts 94°
2026-05-04 15:06 32.67144 -116.72746 22030 ft 449 kts 96°
2026-05-04 15:06 32.67105 -116.69028 22575 ft 452 kts 97°
2026-05-04 15:06 32.67016 -116.65284 23137 ft 456 kts 98°
2026-05-04 15:07 32.66838 -116.57693 24118 ft 464 kts 97°
2026-05-04 15:07 32.66760 -116.53874 24665 ft 462 kts 98°
2026-05-04 15:07 32.66687 -116.50036 25147 ft 466 kts 98°
2026-05-04 15:07 32.66632 -116.46166 25523 ft 472 kts 98°
2026-05-04 15:08 32.66579 -116.42252 25917 ft 478 kts 96°
2026-05-04 15:08 32.66745 -116.38280 26353 ft 486 kts 90°
2026-05-04 15:08 32.67119 -116.34272 26775 ft 491 kts 88°
2026-05-04 15:08 32.67565 -116.30236 27188 ft 495 kts 88°
2026-05-04 15:09 32.68009 -116.26179 27584 ft 498 kts 88°
2026-05-04 15:09 32.68426 -116.22078 27929 ft 503 kts 89°
2026-05-04 15:09 32.68816 -116.17922 28289 ft 507 kts 89°
2026-05-04 15:10 32.69556 -116.09574 29140 ft 511 kts 90°
2026-05-04 15:10 32.69926 -116.05362 29465 ft 515 kts 90°
2026-05-04 15:10 32.70693 -115.96836 30110 ft 522 kts 89°
2026-05-04 15:11 32.71093 -115.92531 30369 ft 527 kts 89°
2026-05-04 15:11 32.71498 -115.88182 30537 ft 533 kts 89°
2026-05-04 15:11 32.71905 -115.83791 30805 ft 536 kts 89°
2026-05-04 15:11 32.72312 -115.79377 31110 ft 538 kts 89°
2026-05-04 15:12 32.72717 -115.74955 31432 ft 540 kts 89°
2026-05-04 15:12 32.73122 -115.70513 31781 ft 540 kts 89°
2026-05-04 15:12 32.73524 -115.66066 32091 ft 542 kts 89°
2026-05-04 15:12 32.73919 -115.61670 32386 ft 543 kts 89°
2026-05-04 15:13 32.74325 -115.57148 32686 ft 545 kts 89°
2026-05-04 15:13 32.74591 -115.54178 32910 ft 545 kts 89°
2026-05-04 15:13 32.75064 -115.48242 33363 ft 544 kts 92°
2026-05-04 15:13 32.75198 -115.45210 33593 ft 543 kts 94°
2026-05-04 15:14 32.75323 -115.39275 34033 ft 542 kts 95°
2026-05-04 15:14 32.75357 -115.36250 34266 ft 541 kts 95°
2026-05-04 15:14 32.75405 -115.31789 34697 ft 538 kts 95°
2026-05-04 15:14 32.75467 -115.27353 34992 ft 539 kts 95°
2026-05-04 15:15 32.75543 -115.22866 34974 ft 546 kts 94°
2026-05-04 15:15 32.75734 -115.13748 34986 ft 557 kts 94°
2026-05-04 15:16 32.76046 -114.99888 34948 ft 560 kts 94°
2026-05-04 15:17 32.76333 -114.86107 34945 ft 551 kts 94°
2026-05-04 15:17 32.76590 -114.72429 34986 ft 554 kts 94°
2026-05-04 15:18 32.76758 -114.63246 34983 ft 557 kts 94°
2026-05-04 15:19 32.76976 -114.49421 34964 ft 558 kts 94°
2026-05-04 15:19 32.77157 -114.35599 34825 ft 557 kts 94°
2026-05-04 15:20 32.77274 -114.26484 34860 ft 554 kts 94°
2026-05-04 15:20 32.77384 -114.17357 34866 ft 551 kts 94°
2026-05-04 15:21 32.77487 -114.08290 34856 ft 544 kts 94°
2026-05-04 15:21 32.78076 -113.99318 33908 ft 547 kts 85°
2026-05-04 15:22 32.78653 -113.94849 33305 ft 546 kts 84°
2026-05-04 15:22 32.79245 -113.90411 32696 ft 543 kts 84°
2026-05-04 15:22 32.80299 -113.81520 31353 ft 544 kts 86°
2026-05-04 15:23 32.80775 -113.77063 30653 ft 545 kts 86°
2026-05-04 15:23 32.81291 -113.72589 29952 ft 547 kts 81°
2026-05-04 15:23 32.82498 -113.68296 29120 ft 550 kts 63°
2026-05-04 15:23 32.84568 -113.64515 28346 ft 544 kts 47°
2026-05-04 15:24 32.89612 -113.57917 26872 ft 535 kts 44°
2026-05-04 15:24 32.94605 -113.51414 25454 ft 529 kts 46°
2026-05-04 15:25 32.97046 -113.48147 24759 ft 526 kts 46°
2026-05-04 15:25 32.99456 -113.44887 24085 ft 524 kts 47°
2026-05-04 15:25 33.01856 -113.41629 23415 ft 522 kts 47°
2026-05-04 15:26 33.06614 -113.35185 22226 ft 509 kts 46°
2026-05-04 15:26 33.08917 -113.32071 22057 ft 494 kts 46°
2026-05-04 15:26 33.13480 -113.25905 21891 ft 492 kts 46°
2026-05-04 15:27 33.15730 -113.22858 21878 ft 481 kts 46°
2026-05-04 15:27 33.20100 -113.16932 20923 ft 472 kts 46°
2026-05-04 15:28 33.24378 -113.11122 19855 ft 465 kts 46°
2026-05-04 15:28 33.26320 -113.08058 19293 ft 465 kts 61°
2026-05-04 15:28 33.27736 -113.00805 18961 ft 435 kts 92°
2026-05-04 15:29 33.27782 -112.97195 18746 ft 435 kts 92°
2026-05-04 15:30 33.28028 -112.82894 17027 ft 422 kts 91°
2026-05-04 15:30 33.28873 -112.72580 16024 ft 408 kts 85°
2026-05-04 15:31 33.29559 -112.65946 15509 ft 397 kts 85°
2026-05-04 15:31 33.29878 -112.62676 15246 ft 396 kts 85°
2026-05-04 15:32 33.30796 -112.52857 14454 ft 390 kts 85°
2026-05-04 15:32 33.31380 -112.46516 13933 ft 378 kts 85°
2026-05-04 15:33 33.31944 -112.40377 13365 ft 361 kts 86°
2026-05-04 15:34 33.32723 -112.31850 12514 ft 330 kts 86°
2026-05-04 15:34 33.32970 -112.29145 12191 ft 324 kts 86°
2026-05-04 15:34 33.33445 -112.23938 11490 ft 305 kts 86°
2026-05-04 15:35 33.33888 -112.19033 10743 ft 289 kts 87°
2026-05-04 15:35 33.34101 -112.16672 10394 ft 281 kts 87°
2026-05-04 15:35 33.34307 -112.14377 10062 ft 275 kts 87°
2026-05-04 15:36 33.34706 -112.09939 9369 ft 262 kts 88°
2026-05-04 15:36 33.34814 -112.07795 9046 ft 253 kts 95°
2026-05-04 15:36 33.34778 -112.05718 8736 ft 247 kts 96°
2026-05-04 15:37 33.34727 -112.03686 8426 ft 242 kts 97°
2026-05-04 15:37 33.34685 -112.01707 8155 ft 240 kts 96°
2026-05-04 15:37 33.34652 -111.99732 7850 ft 235 kts 96°
2026-05-04 15:37 33.34624 -111.97800 7548 ft 230 kts 96°
2026-05-04 15:38 33.34598 -111.95912 7265 ft 224 kts 96°
2026-05-04 15:38 33.34575 -111.94092 7033 ft 215 kts 97°
2026-05-04 15:38 33.34557 -111.92332 6779 ft 210 kts 94°
2026-05-04 15:38 33.34616 -111.90601 6573 ft 208 kts 94°
2026-05-04 15:39 33.34682 -111.88883 6333 ft 205 kts 94°
2026-05-04 15:39 33.34751 -111.87185 6087 ft 203 kts 94°
2026-05-04 15:39 33.34893 -111.83828 5585 ft 201 kts 94°
2026-05-04 15:40 33.34964 -111.82162 5336 ft 200 kts 93°
2026-05-04 15:40 33.35162 -111.80518 5047 ft 205 kts 69°
2026-05-04 15:40 33.36187 -111.79341 4813 ft 212 kts 21°
2026-05-04 15:40 33.37617 -111.79325 4573 ft 207 kts 335°
2026-05-04 15:41 33.38900 -111.80062 4391 ft 206 kts 329°
2026-05-04 15:41 33.40178 -111.80816 4122 ft 201 kts 330°
2026-05-04 15:41 33.41393 -111.81545 3872 ft 191 kts 329°
2026-05-04 15:41 33.42471 -111.82363 3674 ft 179 kts 306°
2026-05-04 15:42 33.42829 -111.83689 3461 ft 165 kts 266°
2026-05-04 15:42 33.42867 -111.85057 3236 ft 166 kts 267°
2026-05-04 15:42 33.42883 -111.86452 3104 ft 167 kts 266°
2026-05-04 15:42 33.42887 -111.87841 2982 ft 167 kts 265°
2026-05-04 15:43 33.42889 -111.89216 2797 ft 163 kts 265°
2026-05-04 15:43 33.42886 -111.90553 2575 ft 156 kts 264°
2026-05-04 15:43 33.42878 -111.91827 2362 ft 151 kts 264°
2026-05-04 15:43 33.42865 -111.93081 2211 ft 149 kts 263°
2026-05-04 15:44 33.42867 -111.94298 2021 ft 145 kts 265°
2026-05-04 15:44 33.42881 -111.95491 1891 ft 145 kts 266°
2026-05-04 15:44 33.42877 -111.96744 1722 ft 155 kts 267°
2026-05-04 15:44 33.42888 -111.98037 1481 ft 152 kts 265°
2026-05-04 15:45 33.42885 -111.99270 1299 ft 146 kts 265°
2026-05-04 15:45 33.42885 -112.00475 1142 ft 142 kts 265°
2026-05-04 15:45 33.42880 -112.01500 1131 ft 95 kts 271°
2026-05-04 15:45 33.42887 -112.02043 1122 ft 45 kts 270°
2026-05-04 15:46 33.42897 -112.02390 1119 ft 30 kts 279°
2026-05-04 15:46 33.42951 -112.02506 1120 ft 14 kts 352°
2026-05-04 15:46 33.42995 -112.02425 1127 ft 13 kts 89°
2026-05-04 15:46 33.42995 -112.02318 1121 ft 13 kts 90°
2026-05-04 15:47 33.42995 -112.02210 1127 ft 14 kts 90°
2026-05-04 15:47 33.42996 -112.02056 1121 ft 21 kts 90°
2026-05-04 15:47 33.42995 -112.01883 1123 ft 20 kts 90°
2026-05-04 15:47 33.42995 -112.01715 1122 ft 20 kts 89°
2026-05-04 15:48 33.42995 -112.01552 1132 ft 19 kts 90°
2026-05-04 15:48 33.42995 -112.01395 1132 ft 19 kts 90°
2026-05-04 15:48 33.42994 -112.01085 1133 ft 19 kts 90°
2026-05-04 15:49 33.42995 -112.00930 1134 ft 18 kts 90°
2026-05-04 15:49 33.42995 -112.00780 1133 ft 18 kts 90°
2026-05-04 15:49 33.43010 -112.00645 1134 ft 16 kts 49°
2026-05-04 15:49 33.43113 -112.00627 1135 ft 15 kts
2026-05-04 15:50 33.43195 -112.00567 1136 ft 14 kts 61°
2026-05-04 15:50 33.43249 -112.00474 1134 ft 14 kts 19°
2026-05-04 15:50 33.43345 -112.00469 1132 ft 15 kts 360°
2026-05-04 15:50 33.43479 -112.00470 1131 ft 22 kts
2026-05-04 15:51 33.43629 -112.00469 1131 ft 21 kts
2026-05-04 15:51 33.43774 -112.00470 1132 ft 21 kts
2026-05-04 15:51 33.43883 -112.00460 1130 ft 14 kts 30°
2026-05-04 15:51 33.43905 -112.00355 1130 ft 13 kts 89°
2026-05-04 15:52 33.43904 -112.00244 1130 ft 14 kts 90°
2026-05-04 15:52 33.43905 -112.00122 1130 ft 15 kts 88°
2026-05-04 15:52 33.43878 -112.00039 1130 ft 11 kts 151°
2026-05-04 15:52 33.43827 -112.00000 1131 ft 7 kts 129°
2026-05-04 15:53 33.43816 -111.99984 1132 ft 0 kts 128°